• En España
  • Lista de países
  • Para 7 días
  • Temperatura del agua
  • Mapa Satelital
  • El tiempo en el mapa
  • Informadores
  • user-avatar
    Iniciar sesión

    Tiempo cada hora Bregenz

    Hoy, 22 Junio, Viernes

    Tiempo Temperatura Precipitaciones Viento Presión Humedad
    00:00 +9°C° 0,6 mm 3 mps 649 mmHg 94%
    01:00 +8°C° 0,6 mm 2 mps 649 mmHg 94%
    02:00 +7°C° 0,1 mm 2 mps 649 mmHg 94%
    03:00 +6°C° 0,1 mm 2 mps 648 mmHg 94%
    04:00 +5°C° 0,1 mm 2 mps 648 mmHg 94%
    05:00 +6°C° 0 mm 2 mps 648 mmHg 93%
    06:00 +6°C° 0 mm 2 mps 649 mmHg 91%
    07:00 +6°C° 0 mm 2 mps 649 mmHg 90%
    08:00 +7°C° 0 mm 2 mps 649 mmHg 83%
    09:00 +9°C° 0 mm 2 mps 650 mmHg 76%
    10:00 +10°C° 0 mm 2 mps 650 mmHg 68%
    11:00 +12°C° 0 mm 2 mps 650 mmHg 62%
    12:00 +13°C° 0 mm 2 mps 650 mmHg 55%
    13:00 +13°C° 0 mm 3 mps 651 mmHg 48%
    14:00 +13°C° 0 mm 3 mps 651 mmHg 49%
    15:00 +13°C° 0 mm 3 mps 651 mmHg 50%
    16:00 +13°C° 0 mm 3 mps 651 mmHg 50%
    17:00 +12°C° 0 mm 3 mps 651 mmHg 57%
    18:00 +10°C° 0 mm 3 mps 651 mmHg 64%
    19:00 +9°C° 0 mm 3 mps 651 mmHg 71%
    20:00 +8°C° 0 mm 2 mps 651 mmHg 77%
    21:00 +7°C° 0 mm 2 mps 651 mmHg 83%
    22:00 +6°C° 0 mm 1 mps 651 mmHg 88%
    23:00 +6°C° 0 mm 1 mps 651 mmHg 90%

    Mañana, 23 Junio, Sábado

    Tiempo Temperatura Precipitaciones Viento Presión Humedad
    00:00 +5°C° 0 mm 1 mps 650 mmHg 92%
    01:00 +4°C° 0 mm 1 mps 650 mmHg 93%
    02:00 +4°C° 0 mm 1 mps 650 mmHg 94%
    03:00 +3°C° 0 mm 0 mps 650 mmHg 94%
    04:00 +2°C° 0 mm 0 mps 650 mmHg 95%
    05:00 +5°C° 0 mm 1 mps 650 mmHg 89%
    06:00 +6°C° 0 mm 1 mps 650 mmHg 83%
    07:00 +8°C° 0 mm 1 mps 651 mmHg 77%
    08:00 +9°C° 0 mm 1 mps 651 mmHg 69%
    09:00 +11°C° 0 mm 1 mps 651 mmHg 61%
    10:00 +13°C° 0 mm 2 mps 652 mmHg 53%
    11:00 +13°C° 0 mm 2 mps 651 mmHg 50%
    12:00 +14°C° 0 mm 2 mps 651 mmHg 48%
    13:00 +15°C° 0 mm 2 mps 651 mmHg 46%
    14:00 +15°C° 0 mm 2 mps 651 mmHg 47%
    15:00 +14°C° 0 mm 3 mps 651 mmHg 47%
    16:00 +14°C° 0 mm 3 mps 651 mmHg 48%
    17:00 +14°C° 0 mm 2 mps 651 mmHg 55%
    18:00 +13°C° 0 mm 2 mps 650 mmHg 61%
    19:00 +12°C° 0 mm 2 mps 650 mmHg 68%
    20:00 +9°C° 0 mm 2 mps 650 mmHg 74%
    21:00 +8°C° 0 mm 2 mps 650 mmHg 81%
    22:00 +6°C° 0 mm 2 mps 650 mmHg 87%
    23:00 +6°C° 0,1 mm 2 mps 650 mmHg 89%

    Pasado mañana, 24 Junio, Domingo

    Tiempo Temperatura Precipitaciones Viento Presión Humedad
    00:00 +7°C° 0,1 mm 1 mps 649 mmHg 91%
    01:00 +7°C° 0,1 mm 1 mps 649 mmHg 93%
    02:00 +6°C° 0,3 mm 1 mps 649 mmHg 94%
    03:00 +6°C° 0,3 mm 1 mps 649 mmHg 95%
    04:00 +6°C° 0,3 mm 1 mps 648 mmHg 96%
    05:00 +7°C° 0,1 mm 1 mps 648 mmHg 95%
    06:00 +7°C° 0,1 mm 1 mps 649 mmHg 93%
    07:00 +8°C° 0,1 mm 1 mps 649 mmHg 92%
    08:00 +8°C° 0 mm 2 mps 649 mmHg 84%
    09:00 +9°C° 0 mm 2 mps 649 mmHg 77%
    10:00 +12°C° 0 mm 2 mps 649 mmHg 70%
    11:00 +12°C° 0,1 mm 2 mps 649 mmHg 66%
    12:00 +12°C° 0,1 mm 3 mps 650 mmHg 61%
    13:00 +13°C° 0,1 mm 3 mps 650 mmHg 57%
    14:00 +13°C° 0,1 mm 3 mps 650 mmHg 58%
    15:00 +13°C° 0,1 mm 3 mps 650 mmHg 59%
    16:00 +13°C° 0,1 mm 3 mps 650 mmHg 60%
    17:00 +12°C° 0,1 mm 3 mps 649 mmHg 66%
    18:00 +11°C° 0,1 mm 3 mps 649 mmHg 73%
    19:00 +12°C° 0,1 mm 2 mps 649 mmHg 79%
    20:00 +9°C° 0 mm 2 mps 649 mmHg 85%
    21:00 +8°C° 0 mm 2 mps 649 mmHg 90%
    22:00 +7°C° 0 mm 1 mps 649 mmHg 95%
    23:00 +7°C° 0 mm 1 mps 649 mmHg 95%

    25 Junio, Lunes

    Tiempo Temperatura Precipitaciones Viento Presión Humedad
    00:00 +6°C° 0 mm 1 mps 648 mmHg 96%
    01:00 +6°C° 0 mm 1 mps 648 mmHg 96%
    02:00 +6°C° 0 mm 1 mps 648 mmHg 96%
    03:00 +5°C° 0 mm 1 mps 648 mmHg 96%
    04:00 +5°C° 0 mm 1 mps 648 mmHg 95%
    05:00 +6°C° 0 mm 1 mps 648 mmHg 92%
    06:00 +8°C° 0 mm 1 mps 649 mmHg 88%
    07:00 +9°C° 0 mm 1 mps 649 mmHg 85%
    08:00 +10°C° 0 mm 1 mps 649 mmHg 77%
    09:00 +12°C° 0 mm 2 mps 650 mmHg 70%
    10:00 +13°C° 0 mm 2 mps 650 mmHg 63%
    11:00 +13°C° 0 mm 3 mps 650 mmHg 60%
    12:00 +14°C° 0 mm 3 mps 650 mmHg 57%
    13:00 +16°C° 0 mm 3 mps 650 mmHg 54%
    14:00 +16°C° 0 mm 3 mps 650 mmHg 55%
    15:00 +16°C° 0 mm 3 mps 650 mmHg 57%
    16:00 +15°C° 0 mm 4 mps 650 mmHg 58%
    17:00 +14°C° 0 mm 3 mps 650 mmHg 65%
    18:00 +13°C° 0 mm 3 mps 650 mmHg 72%
    19:00 +12°C° 0 mm 3 mps 650 mmHg 78%
    20:00 +10°C° 0 mm 3 mps 650 mmHg 84%
    21:00 +9°C° 0 mm 2 mps 649 mmHg 89%
    22:00 +7°C° 0 mm 2 mps 649 mmHg 95%
    23:00 +8°C° 0 mm 1 mps 649 mmHg 95%

    26 Junio, Martes

    Tiempo Temperatura Precipitaciones Viento Presión Humedad
    00:00 +7°C° 0 mm 1 mps 649 mmHg 95%
    01:00 +6°C° 0 mm 1 mps 648 mmHg 95%
    02:00 +6°C° 0 mm 1 mps 648 mmHg 94%
    03:00 +6°C° 0 mm 1 mps 648 mmHg 93%
    04:00 +5°C° 0 mm 1 mps 647 mmHg 93%
    05:00 +7°C° 0 mm 1 mps 648 mmHg 87%
    06:00 +9°C° 0 mm 1 mps 648 mmHg 81%
    07:00 +10°C° 0 mm 1 mps 649 mmHg 76%
    08:00 +12°C° 0 mm 1 mps 649 mmHg 68%
    09:00 +14°C° 0 mm 2 mps 650 mmHg 60%
    10:00 +16°C° 0 mm 3 mps 650 mmHg 52%
    11:00 +17°C° 0 mm 3 mps 650 mmHg 50%
    12:00 +18°C° 0 mm 4 mps 650 mmHg 48%
    13:00 +19°C° 0 mm 4 mps 650 mmHg 46%
    14:00 +19°C° 0 mm 4 mps 650 mmHg 48%
    15:00 +18°C° 0 mm 4 mps 650 mmHg 50%
    16:00 +18°C° 0 mm 4 mps 650 mmHg 52%
    17:00 +17°C° 0 mm 4 mps 650 mmHg 58%
    18:00 +16°C° 0 mm 3 mps 650 mmHg 65%
    19:00 +14°C° 0 mm 3 mps 650 mmHg 71%
    20:00 +12°C° 0 mm 3 mps 649 mmHg 77%
    21:00 +12°C° 0 mm 2 mps 649 mmHg 83%
    22:00 +9°C° 0 mm 2 mps 649 mmHg 89%
    23:00 +8°C° 0 mm 2 mps 649 mmHg 90%

    27 Junio, Miércoles

    Tiempo Temperatura Precipitaciones Viento Presión Humedad
    00:00 +8°C° 0 mm 2 mps 649 mmHg 90%
    01:00 +9°C° 0 mm 1 mps 648 mmHg 91%
    02:00 +8°C° 0 mm 1 mps 648 mmHg 91%
    03:00 +8°C° 0 mm 1 mps 648 mmHg 92%
    04:00 +7°C° 0 mm 1 mps 648 mmHg 92%
    05:00 +9°C° 0 mm 1 mps 648 mmHg 87%
    06:00 +11°C° 0 mm 1 mps 649 mmHg 82%
    07:00 +13°C° 0 mm 1 mps 649 mmHg 76%
    08:00 +14°C° 0 mm 1 mps 650 mmHg 69%
    09:00 +16°C° 0 mm 2 mps 650 mmHg 63%
    10:00 +17°C° 0 mm 3 mps 651 mmHg 56%
    11:00 +18°C° 0 mm 3 mps 651 mmHg 53%
    12:00 +19°C° 0 mm 3 mps 651 mmHg 51%
    13:00 +20°C° 0 mm 4 mps 651 mmHg 48%
    14:00 +20°C° 0 mm 4 mps 651 mmHg 50%
    15:00 +20°C° 0 mm 4 mps 651 mmHg 51%
    16:00 +20°C° 0 mm 4 mps 650 mmHg 53%
    17:00 +18°C° 0 mm 4 mps 650 mmHg 59%
    18:00 +17°C° 0 mm 3 mps 650 mmHg 65%
    19:00 +16°C° 0 mm 3 mps 650 mmHg 71%
    20:00 +13°C° 0 mm 3 mps 650 mmHg 78%
    21:00 +13°C° 0 mm 2 mps 650 mmHg 84%
    22:00 +10°C° 0 mm 2 mps 650 mmHg 90%
    23:00 +9°C° 0 mm 2 mps 649 mmHg 90%
    Mostrar más